Time,TemperatureF,DewpointF,PressureIn,WindDirection,WindDirectionDegrees,WindSpeedMPH,WindSpeedGustMPH,Humidity,HourlyPrecipIn,Conditions,Clouds,dailyrainin,SoftwareType,DateUTC
2013-01-12 00:04:00,61.5,60.9,30.03,SSE,162,10.0,11.0,98,0.00,,,0.00,Wunderground v.1.15,2013-01-12 06:04:00,
2013-01-12 00:09:00,61.6,61.0,30.03,South,184,4.0,11.0,98,0.00,,,0.00,Wunderground v.1.15,2013-01-12 06:09:00,
2013-01-12 00:15:00,61.6,61.0,30.03,WSW,246,5.0,15.0,98,0.00,,,0.00,Wunderground v.1.15,2013-01-12 06:15:00,
2013-01-12 00:20:00,61.6,61.0,30.03,SSE,159,12.0,12.0,98,0.00,,,0.00,Wunderground v.1.15,2013-01-12 06:20:00,
2013-01-12 00:25:00,61.6,60.7,30.03,SSW,192,3.0,12.0,97,0.00,,,0.00,Wunderground v.1.15,2013-01-12 06:25:00,
2013-01-12 00:31:00,61.6,60.7,30.03,SSW,211,7.0,7.0,97,0.00,,,0.00,Wunderground v.1.15,2013-01-12 06:31:00,
2013-01-12 00:36:00,61.6,60.7,30.03,South,178,3.0,7.0,97,0.00,,,0.00,Wunderground v.1.15,2013-01-12 06:36:00,
2013-01-12 00:42:00,61.6,60.7,30.03,SE,146,6.0,8.0,97,0.00,,,0.00,Wunderground v.1.15,2013-01-12 06:42:00,
2013-01-12 00:47:00,61.6,60.7,30.03,SW,218,5.0,8.0,97,0.00,,,0.00,Wunderground v.1.15,2013-01-12 06:47:00,
2013-01-12 00:52:00,61.7,60.8,30.03,SSE,158,7.0,20.0,97,0.00,,,0.00,Wunderground v.1.15,2013-01-12 06:52:00,
2013-01-12 00:58:00,61.7,60.8,30.04,SSW,192,4.0,20.0,97,0.00,,,0.00,Wunderground v.1.15,2013-01-12 06:58:00,
2013-01-12 01:03:00,61.8,60.9,30.03,SW,223,8.0,10.0,97,0.00,,,0.00,Wunderground v.1.15,2013-01-12 07:03:00,
2013-01-12 01:09:00,61.8,60.9,30.04,South,190,6.0,16.0,97,0.00,,,0.00,Wunderground v.1.15,2013-01-12 07:09:00,
2013-01-12 01:14:00,61.8,60.9,30.04,ENE,74,7.0,7.0,97,0.00,,,0.00,Wunderground v.1.15,2013-01-12 07:14:00,
2013-01-12 01:19:00,61.8,60.9,30.04,SE,142,5.0,8.0,97,0.00,,,0.00,Wunderground v.1.15,2013-01-12 07:19:00,
2013-01-12 01:24:00,61.9,61.0,30.04,ESE,110,4.0,10.0,97,0.00,,,0.00,Wunderground v.1.15,2013-01-12 07:24:00,
2013-01-12 01:30:00,62.0,61.1,30.04,SW,217,7.0,7.0,97,0.00,,,0.00,Wunderground v.1.15,2013-01-12 07:30:00,
2013-01-12 01:35:00,62.0,61.1,30.04,SE,131,8.0,15.0,97,0.00,,,0.00,Wunderground v.1.15,2013-01-12 07:35:00,
2013-01-12 01:40:00,62.1,61.2,30.04,South,190,8.0,8.0,97,0.00,,,0.00,Wunderground v.1.15,2013-01-12 07:40:00,
2013-01-12 01:46:00,62.1,61.2,30.04,South,191,4.0,9.0,97,0.00,,,0.00,Wunderground v.1.15,2013-01-12 07:46:00,
2013-01-12 01:51:00,62.1,61.2,30.04,SSW,197,3.0,7.0,97,0.00,,,0.01,Wunderground v.1.15,2013-01-12 07:51:00,
2013-01-12 01:56:00,62.0,61.1,30.04,SSW,206,4.0,12.0,97,0.00,,,0.01,Wunderground v.1.15,2013-01-12 07:56:00,
2013-01-12 02:01:00,62.0,61.1,30.04,SSW,208,10.0,10.0,97,0.00,,,0.01,Wunderground v.1.15,2013-01-12 08:01:00,
2013-01-12 02:06:00,62.0,61.1,30.04,SSE,153,7.0,15.0,97,0.00,,,0.01,Wunderground v.1.15,2013-01-12 08:06:00,
2013-01-12 02:11:00,62.0,61.1,30.04,SE,131,6.0,13.0,97,0.00,,,0.01,Wunderground v.1.15,2013-01-12 08:11:00,